User: anonymous   Login
Location: Poughquag
(41.6090°N, 73.6820°W)
Time: 02:44:08
(UTC-05:00)
Language:

Explorer 11/Cluster Stage 4 - Orbit

View from above orbital plane
View from above orbital plane
View from above satellite
View from above satellite

Ground track
Ground track

The orbit data is extracted from the following two-line orbital elements,

1 00107U 61013A   23339.99311305  .00002524  00000-0  30865-3 0  9998
2 00107  28.7869 213.6347 0527369 188.3201 170.8324 14.13762594145176
Epoch (UTC): 05 December 2023 23:50:04
Eccentricity: 0.0527369
inclination: 28.7869°
perigee height: 465 km
apogee height: 1227 km
right ascension of ascending node: 213.6347°
argument of perigee: 188.3201°
revolutions per day: 14.13762594
mean anomaly at epoch: 170.8324°
orbit number at epoch: 14517

The dashed part of the orbit path shows where the satellite is in the earth's shadow,  

DLR